Location: Arrodets-la-Barthe
(43.0306°N, 0.2829°E)
Time: 19:43:54
(UTC+00:00)

CSL-04 Rocket - Pass Details

Date: 06 June 2022
Orbit: 807 x 859 km, 98.9° (Epoch: 25 June)

Event Time Altitude Azimuth Distance (km) Brightness Sun altitude
Rises 20:22:48 0° 189° (S) 3,334 6.5 -7.8°
Reaches altitude 10° 20:25:19 10° 199° (SSW) 2,414 5.9 -8.1°
Maximum altitude 20:30:09 34° 263° (W) 1,335 5.2 -8.8°
Drops below altitude 10° 20:35:05 10° 328° (NNW) 2,461 7.6 -9.4°
Sets 20:37:42 0° 338° (NNW) 3,409 8.2 -9.8°
